�������r�C�����j�^�v���󋵏��
Date,Time,5�C6���@���p�r�C��,����,����(m/s)
2021/11/30,00:00,3.8,�k,0.9
2021/11/30,00:10,3.9,�k��,1.2
2021/11/30,00:20,4.1,���k��,1.4
2021/11/30,00:30,3.8,���쐼,1.4
2021/11/30,00:40,3.8,���쐼,2.0
2021/11/30,00:50,3.9,���k��,0.8
2021/11/30,01:00,3.8,���k��,2.2
2021/11/30,01:10,4.0,���쐼,3.5
2021/11/30,01:20,3.8,���쐼,3.7
2021/11/30,01:30,4.0,��,1.4
2021/11/30,01:40,4.1,��쐼,1.9
2021/11/30,01:50,3.9,��쐼,2.2
2021/11/30,02:00,3.9,�쐼,0.9
2021/11/30,02:10,4.0,���쐼,1.4
2021/11/30,02:20,4.0,��,1.4
2021/11/30,02:30,4.0,���쐼,1.4
2021/11/30,02:40,4.0,���쐼,1.4
2021/11/30,02:50,3.9,��,2.3
2021/11/30,03:00,3.8,���k��,2.3
2021/11/30,03:10,4.0,��,3.3
2021/11/30,03:20,3.9,���쐼,3.2
2021/11/30,03:30,3.9,���쐼,3.5
2021/11/30,03:40,3.9,�쐼,3.4
2021/11/30,03:50,3.9,�쐼,3.6
2021/11/30,04:00,3.9,��쐼,4.1
2021/11/30,04:10,4.0,��,3.4
2021/11/30,04:20,4.0,��,3.2
2021/11/30,04:30,3.9,��,4.2
2021/11/30,04:40,3.9,��,4.2
2021/11/30,04:50,4.0,��쐼,3.1
2021/11/30,05:00,4.0,��쐼,3.6
2021/11/30,05:10,3.9,��쐼,4.4
2021/11/30,05:20,3.9,��쐼,3.8
2021/11/30,05:30,4.0,��,2.3
2021/11/30,05:40,3.9,��쓌,2.2
2021/11/30,05:50,3.7,��,1.5
2021/11/30,06:00,3.9,��,1.7
2021/11/30,06:10,3.9,��,1.4
2021/11/30,06:20,3.9,�쐼,1.1
2021/11/30,06:30,3.9,�쐼,1.1
2021/11/30,06:40,3.8,��쐼,0.9
2021/11/30,06:50,3.8,���쐼,0.8
2021/11/30,07:00,3.9,��쐼,0.8
2021/11/30,07:10,4.0,��쓌,0.8
2021/11/30,07:20,3.9,��쐼,1.2
2021/11/30,07:30,4.0,��쐼,0.9
2021/11/30,07:40,3.9,��,1.4
2021/11/30,07:50,3.9,��,1.5
2021/11/30,08:00,4.0,��쓌,2.2
2021/11/30,08:10,4.0,��쓌,2.6
2021/11/30,08:20,3.8,��쓌,2.0
2021/11/30,08:30,4.0,��,1.5
2021/11/30,08:40,4.0,��쓌,2.3
2021/11/30,08:50,3.9,��쓌,2.9
2021/11/30,09:00,3.9,��쓌,2.6
2021/11/30,09:10,4.1,��,1.5
2021/11/30,09:20,3.8,��쓌,1.4
2021/11/30,09:30,3.8,�쓌,1.7
2021/11/30,09:40,3.9,�쓌,1.9
2021/11/30,09:50,3.9,��쓌,1.7
2021/11/30,10:00,3.8,�쓌,2.8
2021/11/30,10:10,4.0,��쓌,3.0
2021/11/30,10:20,3.9,��쓌,3.7
2021/11/30,10:30,3.8,��쓌,4.7
2021/11/30,10:40,3.8,��쓌,4.8
2021/11/30,10:50,4.0,��쓌,4.2
2021/11/30,11:00,4.0,��쓌,5.6
2021/11/30,11:10,4.0,��쓌,7.0
2021/11/30,11:20,4.1,��쓌,6.5
2021/11/30,11:30,3.9,��쓌,6.1
2021/11/30,11:40,4.2,��쓌,5.3
2021/11/30,11:50,3.9,��쓌,6.0
2021/11/30,12:00,3.9,��쓌,6.5
2021/11/30,12:10,4.1,��쓌,6.7
2021/11/30,12:20,3.8,��쓌,6.8
2021/11/30,12:30,3.9,��쓌,6.6
2021/11/30,12:40,3.8,��쓌,6.5
2021/11/30,12:50,4.0,��,6.3
2021/11/30,13:00,4.0,��쓌,6.5
2021/11/30,13:10,3.9,��쓌,8.3
2021/11/30,13:20,4.2,��쓌,7.6
2021/11/30,13:30,3.8,��쓌,7.0
2021/11/30,13:40,3.9,��쓌,6.7
2021/11/30,13:50,4.1,��쓌,6.6
2021/11/30,14:00,4.0,��,6.3
2021/11/30,14:10,4.0,��쓌,8.8
2021/11/30,14:20,3.8,��쓌,7.7
2021/11/30,14:30,4.0,��,6.7
2021/11/30,14:40,4.0,��,8.2
2021/11/30,14:50,3.9,��쓌,9.7
2021/11/30,15:00,4.0,��쓌,8.2
2021/11/30,15:10,4.1,��,8.9
2021/11/30,15:20,3.9,��쓌,8.6
2021/11/30,15:30,4.0,��,8.8
2021/11/30,15:40,3.8,��,9.6
2021/11/30,15:50,4.0,��,8.1
2021/11/30,16:00,4.1,��,7.0
2021/11/30,16:10,4.1,��,6.5
2021/11/30,16:20,3.9,��,6.0
2021/11/30,16:30,3.9,��쐼,5.8
2021/11/30,16:40,3.9,��,8.0
2021/11/30,16:50,4.0,��,7.8
2021/11/30,17:00,4.0,��쓌,8.6
2021/11/30,17:10,4.0,��쓌,8.0
2021/11/30,17:20,4.0,��,7.9
2021/11/30,17:30,3.9,��쓌,6.8
2021/11/30,17:40,3.9,��쓌,6.8
2021/11/30,17:50,4.0,��,7.7
2021/11/30,18:00,3.8,��,9.8
2021/11/30,18:10,3.9,��,9.6
2021/11/30,18:20,3.9,��,10.2
2021/11/30,18:30,3.9,��,10.7
2021/11/30,18:40,4.0,��,10.8
2021/11/30,18:50,3.9,��,12.0
2021/11/30,19:00,3.9,��,13.5
2021/11/30,19:10,3.8,��쐼,12.8
2021/11/30,19:20,4.0,��쐼,13.1
2021/11/30,19:30,4.0,��,13.2
2021/11/30,19:40,3.9,��,12.0
2021/11/30,19:50,3.9,��,12.0
2021/11/30,20:00,3.7,��,12.5
2021/11/30,20:10,3.9,��,14.2
2021/11/30,20:20,4.1,��쐼,12.7
2021/11/30,20:30,3.7,��,11.3
2021/11/30,20:40,3.9,��,12.4
2021/11/30,20:50,3.9,��,11.4
2021/11/30,21:00,4.0,��,10.2
2021/11/30,21:10,3.9,��,13.8
2021/11/30,21:20,4.0,��쐼,9.8
2021/11/30,21:30,4.0,��,9.7
2021/11/30,21:40,3.8,��,9.4
2021/11/30,21:50,4.0,��,9.5
2021/11/30,22:00,3.9,��쓌,10.2
2021/11/30,22:10,4.1,��,8.1
2021/11/30,22:20,4.0,��,11.1
2021/11/30,22:30,3.8,��쓌,8.7
2021/11/30,22:40,4.0,��,9.7
2021/11/30,22:50,4.0,��,9.2
2021/11/30,23:00,4.1,��,10.9
2021/11/30,23:10,3.8,��쓌,11.3
2021/11/30,23:20,3.8,��,8.2
2021/11/30,23:30,3.9,��,11.3
2021/11/30,23:40,3.9,��,9.9
2021/11/30,23:50,3.8,��,12.4
